User: anonymous   Login
Location: Unspecified
(0.0000°N, 0.0000°E)
Time: 10:09:18
(UTC+00:00)
Language:

GSAT 7 - Orbit

View from above orbital plane
View from above orbital plane
View from above satellite
View from above satellite

Ground track
Ground track

The orbit data is extracted from the following two-line orbital elements,

1 39234U 13044B   16271.77473086 -.00000108  00000-0  00000+0 0  9991
2 39234   0.0113 155.7829 0011389 106.7458  97.3503  1.00273093 11316
Epoch (UTC): 27 September 2016 18:35:36
Eccentricity: 0.0011389
inclination: 0.0113°
perigee height: 35738 km
apogee height: 35834 km
right ascension of ascending node: 155.7829°
argument of perigee: 106.7458°
revolutions per day: 1.00273093
mean anomaly at epoch: 97.3503°
orbit number at epoch: 1131

The dashed part of the orbit path shows where the satellite is in the earth's shadow,  

DLR